{"data":{"norad_id":59800,"intl_designator":"2024-093U","name":"STARLINK-31812","alt_names":[],"object_type":"PAYLOAD","status":"ACTIVE","operator":null,"country":"US","launch_date":"2024-05-18","launch_site_code":"AFETR","launch_vehicle":null,"mission":null,"orbit_class":"UNKNOWN","rcs_meters":null,"size_class":null,"mass_kg":null,"dimensions":null,"purposes":["comms"],"wikipedia_slug":null,"has_3d_model":false,"image_url":null,"decayed_at":null,"tle_current":{"epoch":"2026-05-24T23:46:47.688672Z","epoch_age_seconds":71958,"freshness":"FRESH","line1":"1 59800U 24093U   26144.99082973  .00000302  00000+0  20499-4 0  9996","line2":"2 59800  43.0007 138.0742 0001068 275.7427  84.3303 15.27576355114432","mean_motion":15.27576355,"eccentricity":0.0001068,"inclination_deg":43.0007,"raan_deg":138.0742,"arg_perigee_deg":275.7427,"mean_anomaly_deg":84.3303,"bstar":2.0499e-5,"rev_number":11443,"period_min":94.26697364663,"perigee_km":482.32723466192,"apogee_km":483.79278634336,"semimajor_km":6861.1970105026,"source":"CELESTRAK","updated_at":"2026-05-25T13:38:19.083703Z"}}}